Home   Weather   Atlanta   Past weeks
Flag for USA

Past Weather in Atlanta, Georgia, USA — Yesterday and Last 2 Weeks

Now
71 °F

Sunny.


Feels Like: 76 °F
Forecast: 71 / 55 °F
Wind: 10 mph from West

Location: Fulton County Airport-Brown Field

Current Time: Oct 22, 2019 at 5:27:29 pm

Latest Report: Oct 22, 2019 at 4:53 pm


Visibility: 10 mi

Pressure: 29.95 "Hg

Humidity: 29%

Dew Point: 37 °F

Location of AtlantaLocation

Past Weather in Atlanta — Graph

°F

Atlanta Temperature Yesterday

Maximum temperature yesterday: 76 °F (at 1:53 pm)
Minimum temperature yesterday: 53 °F (at 7:38 am)
Average temperature yesterday: 63 °F

High & Low Weather Summary for the Past Weeks

 TemperatureHumidityPressure
High82 °F (Oct 8, 4:53 pm)100% (Oct 21, 3:53 am)30.21 "Hg (Oct 21, 3:53 am)
Low41 °F (Oct 18, 6:53 am)29% (Oct 22, 3:53 pm)29.74 "Hg (Oct 19, 11:53 pm)
Average64 °F77%29.99 "Hg
* Reported Oct 7 3:53 pm — Oct 22 3:53 pm, Atlanta. Weather by CustomWeather, © 2019

Note: Actual official high and low records may vary slightly from our data, if they occured in-between our weather recording intervals... More about our weather records

Advertising

Atlanta Weather History for the Previous 24 Hours

Scroll right to see more
 ConditionsComfort  
Time TempWeatherWind HumidityBarometerVisibility
3:53 pm
Tue, Oct 22
71 °FSunny.12 mph29%29.94 "Hg10 mi
2:53 pm71 °FSunny.13 mph30%29.93 "Hg10 mi
1:53 pm70 °FSunny.15 mph35%29.94 "Hg10 mi
12:53 pm68 °FSunny.13 mph44%29.97 "Hg10 mi
11:53 am66 °FSunny.12 mph61%29.97 "Hg10 mi
10:53 am63 °FMild.9 mph78%29.97 "Hg10 mi
9:53 am61 °FMostly cloudy.10 mph87%29.97 "Hg10 mi
8:53 am59 °FOvercast.3 mph93%29.95 "Hg10 mi
8:00 am58 °FLight rain. Low clouds.5 mph90%29.96 "Hg8 mi
6:53 am60 °FLight rain. Fog.10 mph93%29.90 "Hg3 mi
6:38 am61 °FLight rain. Fog.15 mph87%29.90 "Hg3 mi
6:14 am68 °FRain. Fog.7 mph90%29.87 "Hg3 mi
5:53 am69 °FMostly cloudy.6 mph84%29.83 "Hg10 mi
5:28 am69 °FMostly cloudy.6 mph84%29.85 "Hg10 mi
4:53 am68 °FPassing clouds.6 mph84%29.84 "Hg10 mi
3:53 am68 °FClear.5 mph84%29.84 "Hg10 mi
2:53 am69 °FPassing clouds.3 mph79%29.85 "Hg10 mi
1:53 am69 °FPassing clouds.No wind79%29.87 "Hg10 mi
12:53 am70 °FPassing clouds.8 mph79%29.89 "Hg10 mi
11:53 pm
Mon, Oct 21
70 °FPassing clouds.6 mph79%29.90 "Hg10 mi
10:53 pm70 °FPassing clouds.8 mph79%29.91 "Hg10 mi
9:53 pm71 °FPassing clouds.7 mph76%29.93 "Hg10 mi
8:53 pm71 °FOvercast.5 mph76%29.94 "Hg10 mi
7:53 pm71 °FPassing clouds.No wind73%29.95 "Hg10 mi
6:53 pm73 °FPassing clouds.5 mph69%29.92 "Hg10 mi
5:53 pm74 °FPassing clouds.5 mph67%29.92 "Hg10 mi
Weather by CustomWeather, © 2019

See weather overview